Regional Weather Roundup
Issued by NWS Charleston, WV

Home | Current Version | Previous Version | Graphics & Text | Print | Product List | Glossary On
Versions: 1 2 3 4 5 6 7 8 9 10 11 12 13 14 15 16 17 18 19 20 21 22 23 24 25 26 27
000
ASUS41 KRLX 210310
RWRRLX
West Virginia Regional Weather Roundup
National Weather Service Charleston WV
1100 PM EDT FRI APR 20 2018

Note: "fair" indicates few or no clouds below 12,000 feet with no
significant weather and/or obstructions to visibility.

WVZ003-210400-
Northern Panhandle of West Virginia

CITY           SKY/WX    TMP DP  RH WIND       PRES   REMARKS
WHEELING       FAIR      42  17  36 N6        30.41F
$$

WVZ009-210400-
Northwest West Virginia

CITY           SKY/WX    TMP DP  RH WIND       PRES   REMARKS
PARKERSBURG    FAIR      44  24  45 N3        30.44S
$$

WVZ006-210400-
Western West Virginia

CITY           SKY/WX    TMP DP  RH WIND       PRES   REMARKS
HUNTINGTON     FAIR      54  19  25 NE3       30.40S
$$

WVZ015-210400-
West Central West Virginia

CITY           SKY/WX    TMP DP  RH WIND       PRES   REMARKS
CHARLESTON     FAIR      45  24  43 CALM      30.40R
$$

WVZ022-031-210400-
North Central West Virginia

CITY           SKY/WX    TMP DP  RH WIND       PRES   REMARKS
CLARKSBURG     FAIR      45  23  42 CALM      30.40S
MORGANTOWN     FAIR      43  22  43 N6        30.41S
$$

WVZ025-035-042-045-210400-
Southern West Virginia

CITY           SKY/WX    TMP DP  RH WIND       PRES   REMARKS
BECKLEY        FAIR      44  17  33 CALM      30.38S
LOGAN          FAIR      48  19  32 CALM      30.38F
BLUEFIELD      FAIR      43  13  29 NE3       30.38R
LEWISBURG      FAIR      40  22  49 CALM      30.39R
$$

WVZ047-210400-
Northern Mountains of West Virginia

CITY           SKY/WX    TMP DP  RH WIND       PRES   REMARKS
ELKINS         FAIR      32  27  81 CALM      30.39S
$$

WVZ052-210400-
Eastern Panhandle of West Virginia

CITY           SKY/WX    TMP DP  RH WIND       PRES   REMARKS
MARTINSBURG    FAIR      49  21  33 NW9       30.37R
PETERSBURG     FAIR      38  28  67 CALM      30.39S
$$




USA.gov is the U.S. government's official web portal to all federal, state and local government web resources and services.